TimeAST,TemperatureF,Dew PointF,Humidity,Sea Level PressureIn,VisibilityMPH,Wind Direction,Wind SpeedMPH,Gust SpeedMPH,PrecipitationIn,Events,Conditions,WindDirDegrees,DateUTC
12:00 AM,8.6,-4.0,57,29.97,15.0,West,5.8,-,N/A,,Mostly Cloudy,260,2013-01-22 04:00:00
1:00 AM,8.6,-4.0,57,29.96,15.0,West,8.1,-,N/A,,Mostly Cloudy,260,2013-01-22 05:00:00
2:00 AM,8,-3,46,29.98,15,West,6.9,,,,Overcast,260,2013-01-22 06:00:00
2:00 AM,6.8,-4.0,61,29.97,15.0,West,6.9,-,N/A,,Overcast,260,2013-01-22 06:00:00
3:00 AM,6.8,-4.0,61,29.95,15.0,WSW,3.5,-,N/A,,Mostly Cloudy,240,2013-01-22 07:00:00
4:00 AM,5.0,-4.0,66,29.87,15.0,NNW,3.5,-,N/A,,Mostly Cloudy,340,2013-01-22 08:00:00
5:00 AM,6.8,-4.0,61,29.85,15.0,Calm,Calm,-,N/A,,Mostly Cloudy,0,2013-01-22 09:00:00
6:00 AM,6.8,-5.8,56,29.83,15.0,Calm,Calm,-,N/A,,Overcast,0,2013-01-22 10:00:00
7:00 AM,6.8,-4.0,61,29.84,15.0,SW,3.5,-,N/A,,Overcast,230,2013-01-22 11:00:00
8:00 AM,7,-3,48,29.85,15,West,4.6,,,,Overcast,260,2013-01-22 12:00:00
8:00 AM,6.8,-4.0,61,29.84,15.0,West,4.6,-,N/A,,Overcast,260,2013-01-22 12:00:00
9:00 AM,6.8,-4.0,61,29.83,15.0,NW,6.9,-,N/A,,Overcast,310,2013-01-22 13:00:00
10:00 AM,6.8,-0.4,72,29.82,15.0,WNW,8.1,-,N/A,,Overcast,300,2013-01-22 14:00:00
11:00 AM,8.6,-0.4,67,29.78,15.0,NW,11.5,-,N/A,,Overcast,320,2013-01-22 15:00:00
12:00 PM,8.6,-0.4,67,29.75,15.0,NW,12.7,19.6,N/A,,Mostly Cloudy,320,2013-01-22 16:00:00
1:00 PM,8.6,1.4,73,29.71,15.0,NW,18.4,-,N/A,,Mostly Cloudy,320,2013-01-22 17:00:00
1:29 PM,8.6,1.4,73,29.69,15.0,NNW,13.8,20.7,N/A,Snow,Light Snow Showers,330,2013-01-22 17:29:00
2:00 PM,9,2,61,29.69,15,NW,12.7,,,Snow,Light Snow Showers,320,2013-01-22 18:00:00
2:00 PM,8.6,1.4,73,29.69,15.0,NNW,12.7,19.6,N/A,,Mostly Cloudy,330,2013-01-22 18:00:00
3:00 PM,8.6,-0.4,67,29.70,15.0,NNW,13.8,23.0,N/A,,Mostly Cloudy,330,2013-01-22 19:00:00
3:23 PM,8.6,-0.4,67,29.69,15.0,NNW,12.7,23.0,N/A,Snow,Light Snow Showers,330,2013-01-22 19:23:00
4:00 PM,6.8,-0.4,72,29.69,15.0,NW,12.7,18.4,N/A,,Mostly Cloudy,320,2013-01-22 20:00:00
4:33 PM,8.6,1.4,73,29.69,15.0,NW,10.4,-,N/A,Snow,Light Snow Showers,320,2013-01-22 20:33:00
5:00 PM,6.8,-0.4,72,29.70,15.0,WNW,10.4,-,N/A,,Mostly Cloudy,300,2013-01-22 21:00:00
6:00 PM,5.0,-2.2,72,29.71,15.0,West,5.8,-,N/A,,Scattered Clouds,280,2013-01-22 22:00:00
7:00 PM,5.0,-4.0,66,29.72,15.0,WNW,9.2,-,N/A,,Mostly Cloudy,290,2013-01-22 23:00:00
8:00 PM,5,-7,44,29.75,15,WNW,12.7,,,,Partly Cloudy,300,2013-01-23 00:00:00
8:00 PM,5.0,-5.8,61,29.74,15.0,NW,12.7,20.7,N/A,,Mostly Cloudy,310,2013-01-23 00:00:00
9:00 PM,5.0,-7.6,56,29.76,15.0,WNW,10.4,-,N/A,,Mostly Cloudy,290,2013-01-23 01:00:00
10:00 PM,5.0,-9.4,52,29.78,15.0,West,10.4,-,N/A,,Scattered Clouds,280,2013-01-23 02:00:00
11:00 PM,3.2,-9.4,56,29.79,15.0,West,8.1,-,N/A,,Partly Cloudy,280,2013-01-23 03:00:00